weather.gov     
National Weather Service

Terminal Aerodrome Forecast
NWS Homepage
This page is being discontinued on March 12, 2014.
The same data is available at this site. Please update your bookmarks.
Thank you, and we apologize for the inconvenience.
Please send an email to SR-SRH.Webmaster@noaa.gov with any concerns.


Current Version
Previous Version:    01  02  03  04  05  06  07  08  09  10  11  12  13  14  15  16  17  18  19  20  21  22  23  24  25  26  27  28  29  30  
   31  32  33  34  35  36  37  38  39  40  41  42  43  44  45  46  47  48  49  50  51  52  53  54  55  56  57  58  59  
[Printable]
039
FTUS41 KPHI 210900 AAB
TAFPHL
TAF AMD
KPHL 210937Z 2110/2212 VRB03KT P6SM SCT005 BKN012
      TEMPO 2110/2112 3SM BR BKN004
     FM211200 VRB02KT 6SM BR SCT020
      TEMPO 2112/2115 4SM BR BKN020
     FM211500 20005KT P6SM SCT020 BKN200
     FM211900 23008KT P6SM SCT250
     FM220500 28008KT P6SM SCT050=


U.S. Dept. of Commerce
NOAA National Weather Service
1325 East West Highway
Silver Spring, MD 20910
E-mail: w-nws.webmaster@noaa.gov
Page last modified: May 16, 2007
NATIONAL WEATHER SERVICE: for Safety, for Work, for Fun - FOR LIFE